sat.trackr.live / text

‹ back to catalog

STARLINK-32785

NORAD 62531 · 2025-004W

PAYLOAD ACTIVE UNKNOWN

§ Identity

Operator
Country
US
Launch date
2025-01-08
Launch site
AFETR
Launch vehicle
Mass (kg)
RCS (m²)

Purposes: comms

External: N2YO · Heavens-Above · Gunter

§ Orbital elements

Epoch: 2026-09-21T04:17:22.419744Z

Period
94.27 min
Inclination
42.9997°
Eccentricity
0.0000766
Mean motion
15.27587671 rev/d
Perigee alt
482.5 km
Apogee alt
483.6 km
Semi-major
6,861.2 km
B*
3.6219e-4
RAAN
196.0664°
Arg perigee
339.9487°
Mean anomaly
20.1334°
Rev number
9,635

§ Raw data

STARLINK-327851 62531U 25004W   26264.17873171  .00009720  00000+0  36219-3 0  99942 62531  42.9997 196.0664 0000766 339.9487  20.1334 15.27587671 96358

JSON: /api/v1/satellites/62531 · /tle

For live sub-satellite position, see the globe view (requires WebGL).

§ Visibility from observer

Set your observer location to see the next 7 days of passes ≥ 10°. The values pass through the URL so the page stays shareable.

No JS? Fill the form by hand. The geolocation button needs JavaScript.